SL-14 R/B

Satellite information

Favourite Embed

Satellite Type and Status

ROCKET BODYIN ORBIT

Key statistics

Satellite SL-14 R/B at a glance.

Uptime

14064

Days in orbit

Revolutions

≈ 13.8

Per day

Orbit

LEO

Low Earth Orbit

Inclination

82.5

Latest

Satellite identification and parameters

Extended collection of information and parameters for SL-14 R/B.

Object identification

Identified? True

Debris? False

Object name: SL-14 R/B

International designator: 1987-001B

Object number (NORAD): 17291

Object ID (CCSDS): 17291

Country: COMMONWEALTH OF INDEPENDENT STATES (CIS)

Current information (Y/N): Y

RCS size: LARGE

Orbital parameters

Period: 103.996 minutes

Inclination: 82.4674 deg

SMA: 7325.489 km

Apoapsis: 956.541 km

Periapsis: 938.167 km

RAAN: 17.247 deg

Eccentricy: 0.0012541

Argument of periapsis: 75.8974 deg

Mean anomaly: 284.3579 deg

Mean motion: 13.84675032 rev/day

Mean motion (dot): 0.00000041 rev/day2

B* drag term: 0.000023582 1/REarth

Two-line elements (TLE)

Creation date: July 8, 2025, 2:27 a.m.

Reference frame: TEME

Reference center: EARTH

Epoch: July 7, 2025, 10:12 p.m. UTC

TLE line 0: 0 SL-14 R/B

TLE line 1: 1 17291U 87001B 25188.92536760 .00000041 00000-0 23582-4 0 9997

TLE line 2: 2 17291 82.4674 17.2470 0012541 75.8974 284.3579 13.84675032945642

Live tracking on map

Real-time ground track for satellite SL-14 R/B.

In-orbit conjunctions

A list of the most updated potential collisions computed for object SL-14 R/B.

Target Orbit TCA Probability of collision Miss distance Type
NIMBUS 7 SSO 2024-08-09 06:06:43 0.001264182 43.0 (m) PAYLOAD

Associated space launch

Second generation soviet meteorological satellite

SL-14 R/B was lifted into orbit during the mission ‘Tsiklon-3 | Meteor-2 15’, on board a Tsiklon-3 space rocket.

The launch took place on Jan. 5, 1987, 1:20 a.m. from 32/2.

For more information about the launch, click the button.

Launch to space Tsiklon-3 | Meteor-2 15
Tsiklon-3 | Meteor-2 15

Agency: N/A

Status: Launch Successful

Launch date: Jan. 5, 1987, 1:20 a.m. UTC

Rocket: Tsiklon-3

Launch pad: 32/2

Location: Plesetsk Cosmodrome, Russian Federation

...

Latest news about this satellite

There are no fresh news available about this satellite. Check back as we update our databases every day.


Newsletter sign-up

Weekly statistics, charts and insights to help you stay on top of the space industry.